FW3232 Weather Reports


Display with metric or nautical units.
time (UTC)temp
F
wind
direction
speed
MPH
gust
MPH
rain 1hr
in
rain 24hr
in
rain mn
in
humidity
%
barometer
mb
20260904043438 78 316 2.0 5.0 0.00 0.00 0.00 72 1015.8
20260904042937 78 311 2.0 4.0 0.00 0.00 0.00 72 1015.8
20260904042438 78 318 2.0 4.0 0.00 0.00 0.00 72 1015.8
20260904041937 78 322 2.0 5.0 0.00 0.00 0.00 72 1015.8
20260904041437 78 310 2.0 6.0 0.00 0.00 0.00 72 1015.8
20260904040937 79 325 4.0 6.0 0.00 0.00 0.00 71 1015.8
20260904040437 79 324 3.0 4.0 0.00 0.00 0.00 71 1015.8
20260904035937 79 311 2.0 4.0 0.00 0.00 0.00 70 1015.8
20260904035437 79 310 3.0 5.0 0.00 0.00 0.00 70 1015.8
20260904034937 79 321 3.0 5.0 0.00 0.00 0.00 70 1015.8
20260904034438 79 324 3.0 5.0 0.00 0.00 0.00 70 1015.8
20260904033937 80 322 3.0 5.0 0.00 0.00 0.00 70 1015.8
20260904033437 80 327 4.0 5.0 0.00 0.00 0.00 69 1015.8
20260904032937 80 307 2.0 5.0 0.00 0.00 0.00 68 1015.8
20260904032437 80 321 4.0 6.0 0.00 0.00 0.00 69 1015.8
20260904031939 80 315 3.0 6.0 0.00 0.00 0.00 68 1015.8
20260904031437 81 327 4.0 6.0 0.00 0.00 0.00 67 1015.8
20260904030937 81 314 3.0 4.0 0.00 0.00 0.00 67 1015.8
20260904030437 81 331 2.0 6.0 0.00 0.00 0.00 66 1015.8
20260904025937 81 293 1.0 6.0 0.00 0.00 0.00 66 1015.8
20260904025437 82 310 3.0 6.0 0.00 0.00 0.00 66 1015.8
20260904024937 82 326 2.0 7.0 0.00 0.00 0.00 66 1015.8
20260904024437 82 324 3.0 7.0 0.00 0.00 0.00 65 1015.8
20260904023939 82 302 4.0 7.0 0.00 0.00 0.00 65 1015.8
20260904023437 82 323 3.0 5.0 0.00 0.00 0.00 65 1015.8
20260904022937 83 325 4.0 5.0 0.00 0.00 0.00 64 1015.8
20260904022437 83 318 3.0 4.0 0.00 0.00 0.00 63 1015.8
20260904021937 83 315 2.0 5.0 0.00 0.00 0.00 63 1015.8
20260904021439 83 317 3.0 5.0 0.00 0.00 0.00 63 1015.8
20260904020938 84 313 2.0 6.0 0.00 0.00 0.00 62 1015.8
20260904020437 84 318 3.0 5.0 0.00 0.00 0.00 62 1015.8
20260904015937 84 309 2.0 6.0 0.00 0.00 0.00 61 1015.8
20260904015437 85 312 2.0 5.0 0.00 0.00 0.00 61 1015.8
20260904014938 85 316 3.0 5.0 0.00 0.00 0.00 60 1015.8
20260904014437 86 320 3.0 4.0 0.00 0.00 0.00 59 1015.8
20260904013937 86 323 2.0 4.0 0.00 0.00 0.00 58 1015.8
20260904013437 87 312 2.0 6.0 0.00 0.00 0.00 57 1015.8
20260904012937 87 319 5.0 6.0 0.00 0.00 0.00 57 1015.8
20260904012438 88 313 2.0 6.0 0.00 0.00 0.00 55 1015.8
20260904011939 89 284 1.0 5.0 0.00 0.00 0.00 55 1015.8
20260904011437 89 328 4.0 5.0 0.00 0.00 0.00 54 1015.8
20260904010938 90 280 1.0 4.0 0.00 0.00 0.00 53 1015.8
20260904010437 90 256 2.0 4.0 0.00 0.00 0.00 52 1015.8
20260904005938 90 261 2.0 5.0 0.00 0.00 0.00 52 1015.8
20260904005437 91 207 2.0 6.0 0.00 0.00 0.00 51 1015.8
20260904004937 91 197 2.0 6.0 0.00 0.00 0.00 51 1015.8
20260904004437 91 130 3.0 8.0 0.00 0.00 0.00 50 1015.8
20260904003937 92 176 4.0 7.0 0.00 0.00 0.00 49 1015.8
20260904003438 92 90 3.0 7.0 0.00 0.00 0.00 49 1015.8
20260904002937 92 113 3.0 7.0 0.00 0.00 0.00 48 1015.8
20260904002437 92 101 2.0 10.0 0.00 0.00 0.00 47 1015.8
20260904001937 93 57 5.0 10.0 0.00 0.00 0.00 47 1015.8
20260904001439 93 122 3.0 7.0 0.00 0.00 0.00 47 1015.8
20260904000937 94 101 3.0 7.0 0.00 0.00 0.00 46 1015.8
20260904000440 94 159 3.0 9.0 0.00 0.00 0.00 45 1015.8
20260903235937 95 173 3.0 6.0 0.00 0.00 0.00 44 1015.8
20260903235437 95 305 1.0 7.0 0.00 0.00 0.00 43 1015.8
20260903234937 95 255 2.0 7.0 0.00 0.00 0.00 42 1015.8
20260903234437 96 146 4.0 9.0 0.00 0.00 0.00 42 1015.8
20260903233937 96 179 4.0 10.0 0.00 0.00 0.00 42 1015.8
20260903233438 96 188 5.0 10.0 0.00 0.00 0.00 41 1015.8
20260903232938 96 193 2.0 7.0 0.00 0.00 0.00 40 1015.8
20260903232437 96 166 4.0 8.0 0.00 0.00 0.00 40 1015.8
20260903231937 97 157 2.0 7.0 0.00 0.00 0.00 40 1015.8
20260903231437 97 291 1.0 7.0 0.00 0.00 0.00 40 1015.8
20260903230937 97 139 4.0 12.0 0.00 0.00 0.00 40 1015.8
20260903230437 98 127 3.0 8.0 0.00 0.00 0.00 38 1015.8
20260903225937 98 49 3.0 7.0 0.00 0.00 0.00 38 1015.8
20260903225437 98 157 4.0 8.0 0.00 0.00 0.00 38 1015.8
20260903224938 98 166 4.0 9.0 0.00 0.00 0.00 38 1015.8
20260903224437 98 165 5.0 9.0 0.00 0.00 0.00 38 1015.8
20260903223937 98 191 3.0 8.0 0.00 0.00 0.00 37 1015.8
20260903223439 98 130 4.0 7.0 0.00 0.00 0.00 37 1015.8
20260903222937 98 187 3.0 14.0 0.00 0.00 0.00 37 1015.8
20260903222440 98 168 6.0 14.0 0.00 0.00 0.00 37 1015.8
20260903221937 99 178 8.0 10.0 0.00 0.00 0.00 37 1015.8
20260903221439 99 336 4.0 12.0 0.00 0.00 0.00 37 1015.8
20260903220937 99 151 6.0 11.0 0.00 0.00 0.00 38 1015.8
20260903220438 99 135 3.0 7.0 0.00 0.00 0.00 37 1015.8
20260903215937 98 173 4.0 13.0 0.00 0.00 0.00 37 1015.8
20260903215437 98 142 4.0 9.0 0.00 0.00 0.00 37 1015.8
20260903214938 98 266 4.0 12.0 0.00 0.00 0.00 36 1015.8
20260903214437 98 166 7.0 12.0 0.00 0.00 0.00 37 1015.8
20260903213937 99 138 5.0 8.0 0.00 0.00 0.00 36 1015.8
20260903213437 98 189 4.0 9.0 0.00 0.00 0.00 37 1015.8
20260903212937 98 155 5.0 16.0 0.00 0.00 0.00 37 1015.8
20260903212438 98 162 9.0 13.0 0.00 0.00 0.00 36 1015.8
20260903211937 98 112 3.0 11.0 0.00 0.00 0.00 37 1015.8
20260903211437 98 159 6.0 12.0 0.00 0.00 0.00 37 1015.8
20260903210937 99 170 8.0 14.0 0.00 0.00 0.00 37 1015.8
20260903210438 99 167 6.0 11.0 0.00 0.00 0.00 36 1015.8
20260903205937 98 166 6.0 13.0 0.00 0.00 0.00 37 1015.8
20260903205437 99 164 9.0 13.0 0.00 0.00 0.00 37 1015.8
20260903204937 99 165 7.0 13.0 0.00 0.00 0.00 37 1015.8
20260903204437 98 165 6.0 13.0 0.00 0.00 0.00 37 1015.8
20260903203938 98 156 6.0 13.0 0.00 0.00 0.00 37 1015.8
20260903203438 98 162 5.0 12.0 0.00 0.00 0.00 38 1015.8
20260903202938 98 189 6.0 12.0 0.00 0.00 0.00 39 1015.8
20260903202438 98 201 4.0 13.0 0.00 0.00 0.00 38 1015.8
20260903201937 98 169 8.0 13.0 0.00 0.00 0.00 39 1015.8
20260903201437 98 167 7.0 11.0 0.00 0.00 0.00 38 1015.8
20260903200939 98 155 6.0 13.0 0.00 0.00 0.00 39 1015.8
20260903200438 98 155 7.0 11.0 0.00 0.00 0.00 39 1015.8
20260903195939 98 68 3.0 8.0 0.00 0.00 0.00 39 1015.8
20260903195437 98 161 6.0 11.0 0.00 0.00 0.00 39 1015.8
20260903194937 98 152 8.0 19.0 0.00 0.00 0.00 39 1015.8
20260903194437 98 166 8.0 10.0 0.00 0.00 0.00 37 1015.8
20260903193937 99 6 4.0 14.0 0.00 0.00 0.00 36 1015.8
20260903193437 99 160 7.0 10.0 0.00 0.00 0.00 37 1015.8
20260903192937 100 191 4.0 10.0 0.00 0.00 0.00 37 1015.8
20260903192438 99 318 4.0 9.0 0.00 0.00 0.00 37 1015.8
20260903191938 99 16 4.0 11.0 0.00 0.00 0.00 36 1015.8
20260903191437 98 127 3.0 12.0 0.00 0.00 0.00 37 1015.8
20260903190937 97 139 3.0 13.0 0.00 0.00 0.00 39 1015.8
20260903190437 97 166 11.0 14.0 0.00 0.00 0.00 39 1015.8
20260903185937 97 170 4.0 14.0 0.00 0.00 0.00 40 1015.8
20260903185437 97 164 6.0 13.0 0.00 0.00 0.00 39 1015.8
20260903184937 97 156 7.0 10.0 0.00 0.00 0.00 38 1015.8
20260903184438 97 142 6.0 12.0 0.00 0.00 0.00 39 1015.8
20260903183938 97 142 8.0 12.0 0.00 0.00 0.00 39 1015.8
20260903183437 96 140 5.0 12.0 0.00 0.00 0.00 39 1015.8
20260903182937 96 143 8.0 12.0 0.00 0.00 0.00 40 1015.8
20260903182438 96 141 6.0 15.0 0.00 0.00 0.00 41 1015.8
20260903181939 96 143 9.0 13.0 0.00 0.00 0.00 42 1015.8
20260903181437 96 139 6.0 11.0 0.00 0.00 0.00 41 1015.8
20260903180938 96 142 6.0 11.0 0.00 0.00 0.00 40 1015.8
20260903180439 96 139 5.0 9.0 0.00 0.00 0.00 41 1015.8
20260903175938 96 139 5.0 13.0 0.00 0.00 0.00 41 1015.8
20260903175437 96 142 9.0 13.0 0.00 0.00 0.00 41 1015.8
20260903174938 96 139 3.0 9.0 0.00 0.00 0.00 41 1015.8
20260903174437 96 141 6.0 8.0 0.00 0.00 0.00 41 1015.8
20260903173439 95 143 7.0 10.0 0.00 0.00 0.00 42 1015.8
20260903172938 95 141 5.0 11.0 0.00 0.00 0.00 42 1015.8
20260903172440 95 142 9.0 13.0 0.00 0.00 0.00 42 1015.8
20260903171940 94 142 5.0 11.0 0.00 0.00 0.00 44 1015.8
20260903171438 94 140 5.0 11.0 0.00 0.00 0.00 45 1015.8
20260903170938 94 141 6.0 10.0 0.00 0.00 0.00 44 1015.8
20260903170438 93 141 6.0 10.0 0.00 0.00 0.00 44 1015.8
20260903165437 93 153 4.0 11.0 0.00 0.00 0.00 45 1015.8
20260903164940 94 160 5.0 9.0 0.00 0.00 0.00 44 1015.8
20260903164439 94 144 4.0 10.0 0.00 0.00 0.00 44 1015.8
20260903163937 94 320 5.0 11.0 0.00 0.00 0.00 45 1015.8
20260903163437 94 317 4.0 10.0 0.00 0.00 0.00 45 1015.8
20260903162438 95 169 5.0 8.0 0.00 0.00 0.00 43 1015.8
20260903161937 94 114 3.0 10.0 0.00 0.00 0.00 43 1015.8
20260903161438 94 230 4.0 12.0 0.00 0.00 0.00 45 1015.8
20260903160938 93 151 5.0 10.0 0.00 0.00 0.00 45 1015.8
20260903160437 94 161 3.0 10.0 0.00 0.00 0.00 45 1015.8
20260903155939 94 22 5.0 12.0 0.00 0.00 0.00 44 1015.8
20260903155439 93 314 6.0 12.0 0.00 0.00 0.00 46 1015.8
20260903154937 92 26 4.0 11.0 0.00 0.00 0.00 48 1015.8
20260903154438 92 172 3.0 11.0 0.00 0.00 0.00 49 1015.8
20260903153938 92 165 5.0 8.0 0.00 0.00 0.00 48 1015.8
20260903153437 91 271 3.0 8.0 0.00 0.00 0.00 49 1015.8
20260903152938 91 288 3.0 7.0 0.00 0.00 0.00 50 1015.8
20260903152437 90 332 3.0 7.0 0.00 0.00 0.00 51 1015.8
20260903151937 90 160 4.0 10.0 0.00 0.00 0.00 52 1015.8
20260903151438 89 171 5.0 8.0 0.00 0.00 0.00 52 1015.8
20260903150938 89 187 4.0 7.0 0.00 0.00 0.00 53 1015.8
20260903150438 89 188 3.0 7.0 0.00 0.00 0.00 54 1015.8
20260903145937 88 178 3.0 11.0 0.00 0.00 0.00 56 1015.8
20260903145437 88 227 4.0 9.0 0.00 0.00 0.00 56 1015.8
20260903145025 88 193 4.0 9.0 0.00 0.00 0.00 57 1015.8
20260903144437 88 299 6.0 9.0 0.00 0.00 0.00 57 1015.8
20260903143939 87 299 5.0 9.0 0.00 0.00 0.00 58 1015.8
20260903143437 86 308 3.0 10.0 0.00 0.00 0.00 60 1015.8
20260903142938 86 248 6.0 9.0 0.00 0.00 0.00 62 1015.8
20260903142438 86 200 3.0 9.0 0.00 0.00 0.00 61 1015.8
20260903141937 85 178 6.0 9.0 0.00 0.00 0.00 62 1015.8
20260903141437 85 210 3.0 8.0 0.00 0.00 0.00 63 1015.8
20260903140937 85 278 2.0 8.0 0.00 0.00 0.00 64 1015.8
20260903140437 85 273 3.0 6.0 0.00 0.00 0.00 65 1015.8
20260903135938 84 198 5.0 7.0 0.00 0.00 0.00 66 1015.8
20260903135437 83 219 4.0 6.0 0.00 0.00 0.00 68 1015.8
20260903134437 82 156 2.0 6.0 0.00 0.00 0.00 70 1015.8
20260903133939 82 201 3.0 6.0 0.00 0.00 0.00 71 1015.8
20260903133437 82 255 2.0 5.0 0.00 0.00 0.00 71 1015.8
20260903132937 82 259 4.0 6.0 0.00 0.00 0.00 71 1015.8
20260903132437 81 244 2.0 5.0 0.00 0.00 0.00 73 1015.8
20260903131939 81 201 1.0 4.0 0.00 0.00 0.00 73 1015.8
20260903131438 80 254 2.0 4.0 0.00 0.00 0.00 73 1015.8
20260903130937 80 178 2.0 4.0 0.00 0.00 0.00 75 1015.8
20260903130438 80 148 2.0 3.0 0.00 0.00 0.00 75 1015.8
20260903125937 79 360 0.0 2.0 0.00 0.00 0.00 76 1015.8
20260903125437 80 360 0.0 1.0 0.00 0.00 0.00 75 1015.8
20260903124937 80 156 0.0 1.0 0.00 0.00 0.00 74 1015.8
20260903124438 79 360 0.0 0.0 0.00 0.00 0.00 76 1015.8
20260903123937 78 360 0.0 0.0 0.00 0.00 0.00 78 1015.8
20260903123438 77 360 0.0 0.0 0.00 0.00 0.00 79 1015.8
20260903122937 75 360 0.0 0.0 0.00 0.00 0.00 81 1015.8
20260903122438 74 360 0.0 0.0 0.00 0.00 0.00 85 1015.8
20260903121937 73 360 0.0 0.0 0.00 0.00 0.00 87 1015.8
20260903121437 72 360 0.0 0.0 0.00 0.00 0.00 88 1015.8
20260903120937 72 360 0.0 0.0 0.00 0.00 0.00 89 1015.8
20260903120437 72 360 0.0 0.0 0.00 0.00 0.00 90 1015.8
20260903115937 72 360 0.0 2.0 0.00 0.00 0.00 90 1015.8
20260903115437 71 346 2.0 4.0 0.00 0.00 0.00 91 1015.8
20260903114937 71 328 1.0 2.0 0.00 0.00 0.00 91 1015.8
20260903114437 71 360 0.0 2.0 0.00 0.00 0.00 91 1015.8
20260903113937 71 337 1.0 2.0 0.00 0.00 0.00 91 1015.8
20260903113438 72 360 0.0 2.0 0.00 0.00 0.00 90 1015.8
20260903112937 72 337 1.0 2.0 0.00 0.00 0.00 90 1015.8
20260903112437 72 360 0.0 0.0 0.00 0.00 0.00 90 1015.8
20260903111938 71 345 0.0 1.0 0.00 0.00 0.00 91 1015.8
20260903111437 72 329 0.0 5.0 0.00 0.00 0.00 90 1015.8
20260903110937 72 306 2.0 5.0 0.00 0.00 0.00 90 1015.8
20260903110437 72 279 1.0 4.0 0.00 0.00 0.00 90 1017.1
20260903105937 72 315 2.0 5.0 0.00 0.00 0.00 90 1017.1
20260903105437 72 307 3.0 5.0 0.00 0.00 0.00 90 1017.1
20260903104937 72 301 2.0 5.0 0.00 0.00 0.00 90 1017.1
20260903104437 72 306 2.0 5.0 0.00 0.00 0.00 90 1017.1
20260903103937 72 313 2.0 5.0 0.00 0.00 0.00 89 1017.1
20260903103437 72 301 2.0 5.0 0.00 0.00 0.00 89 1017.1
20260903102937 72 314 3.0 6.0 0.00 0.00 0.00 90 1017.1
20260903102437 72 307 3.0 5.0 0.00 0.00 0.00 89 1017.1
20260903101937 72 314 3.0 5.0 0.00 0.00 0.00 89 1017.1
20260903101437 72 307 2.0 4.0 0.00 0.00 0.00 88 1017.1
20260903100937 72 311 2.0 5.0 0.00 0.00 0.00 88 1017.1
20260903100438 72 303 2.0 6.0 0.00 0.00 0.00 88 1017.1
20260903095937 73 320 3.0 5.0 0.00 0.00 0.00 87 1017.1
20260903095437 73 311 3.0 5.0 0.00 0.00 0.00 86 1017.1
20260903094937 72 310 2.0 7.0 0.00 0.00 0.00 87 1017.1
20260903094438 72 311 2.0 6.0 0.00 0.00 0.00 87 1017.1
20260903093937 72 309 3.0 6.0 0.00 0.00 0.00 88 1017.1
20260903093437 72 307 2.0 5.0 0.00 0.00 0.00 88 1017.1
20260903092937 72 315 3.0 5.0 0.00 0.00 0.00 88 1017.1
20260903092500 73 315 4.0 5.0 0.00 0.00 0.00 87 1017.1
20260903091937 73 312 3.0 6.0 0.00 0.00 0.00 87 1017.1
20260903091437 73 312 3.0 5.0 0.00 0.00 0.00 87 1017.1
20260903090937 73 313 3.0 6.0 0.00 0.00 0.00 87 1017.1
20260903090437 73 307 3.0 6.0 0.00 0.00 0.00 87 1017.1
20260903085937 73 312 2.0 4.0 0.00 0.00 0.00 87 1017.1
20260903085438 73 278 1.0 5.0 0.00 0.00 0.00 86 1017.1
20260903084939 73 311 3.0 5.0 0.00 0.00 0.00 86 1017.1
20260903084437 73 301 2.0 4.0 0.00 0.00 0.00 86 1017.1
20260903083937 73 315 2.0 4.0 0.00 0.00 0.00 85 1017.1
20260903083437 74 302 2.0 5.0 0.00 0.00 0.00 85 1017.1
20260903082937 74 318 4.0 6.0 0.00 0.00 0.00 85 1017.1
20260903082437 74 272 1.0 5.0 0.00 0.00 0.00 85 1017.1
20260903081937 74 311 3.0 5.0 0.00 0.00 0.00 84 1017.1
20260903081439 74 305 3.0 5.0 0.00 0.00 0.00 84 1017.1
20260903080937 74 313 3.0 5.0 0.00 0.00 0.00 84 1017.1
20260903080439 74 307 2.0 4.0 0.00 0.00 0.00 84 1017.1
20260903075937 74 291 1.0 5.0 0.00 0.00 0.00 83 1017.1
20260903075437 74 314 3.0 5.0 0.00 0.00 0.00 83 1017.1
20260903074940 74 316 3.0 5.0 0.00 0.00 0.00 83 1017.1
20260903074437 74 304 2.0 5.0 0.00 0.00 0.00 82 1017.1
20260903073939 74 309 3.0 5.0 0.00 0.00 0.00 82 1017.1
20260903073437 74 293 2.0 5.0 0.00 0.00 0.00 81 1017.1
20260903072940 74 307 2.0 5.0 0.00 0.00 0.00 81 1017.1
20260903072437 74 304 2.0 6.0 0.00 0.00 0.00 81 1017.1
20260903071939 75 308 2.0 4.0 0.00 0.00 0.00 81 1017.1
20260903071440 75 275 1.0 4.0 0.00 0.00 0.00 80 1017.1
20260903070939 75 279 1.0 5.0 0.00 0.00 0.00 80 1017.1
20260903070437 75 307 2.0 6.0 0.00 0.00 0.00 80 1017.1
20260903065937 75 302 2.0 5.0 0.00 0.00 0.00 80 1017.1
20260903065439 75 305 1.0 4.0 0.00 0.00 0.00 79 1017.1
20260903064937 75 304 2.0 7.0 0.00 0.00 0.00 79 1017.1
20260903064437 75 314 4.0 7.0 0.00 0.00 0.00 79 1017.1
20260903063937 75 312 3.0 5.0 0.00 0.00 0.00 79 1017.1
20260903063437 76 276 1.0 6.0 0.00 0.00 0.00 78 1017.1
20260903062937 76 309 3.0 6.0 0.00 0.00 0.00 78 1017.1
20260903062437 76 310 3.0 6.0 0.00 0.00 0.00 78 1017.1
20260903061937 76 314 4.0 6.0 0.00 0.00 0.00 78 1017.1
20260903061437 76 301 1.0 4.0 0.00 0.00 0.00 78 1017.1
20260903060938 76 294 1.0 4.0 0.00 0.00 0.00 77 1017.1
20260903060437 76 308 2.0 5.0 0.00 0.00 0.00 77 1017.1
20260903055937 76 300 2.0 5.0 0.00 0.00 0.00 77 1017.1
20260903055439 76 315 3.0 5.0 0.00 0.00 0.00 76 1017.1
20260903054938 76 304 1.0 4.0 0.00 0.00 0.00 76 1017.1
20260903054437 76 303 1.0 4.0 0.00 0.00 0.00 77 1017.1
20260903053937 76 308 2.0 4.0 0.00 0.00 0.00 76 1017.1
20260903053500 76 266 1.0 4.0 0.00 0.00 0.00 76 1017.1
20260903052937 76 299 2.0 4.0 0.00 0.00 0.00 76 1017.1
20260903052437 77 267 1.0 4.0 0.00 0.00 0.00 76 1017.1
20260903051937 77 273 1.0 4.0 0.00 0.00 0.00 75 1017.1
20260903050956 77 268 1.0 3.0 0.00 0.00 0.00 74 1017.1
20260903050437 77 285 1.0 4.0 0.00 0.00 0.00 74 1017.1
20260903045938 77 293 2.0 4.0 0.00 0.00 0.00 74 1017.1
20260903045437 77 301 1.0 4.0 0.00 0.00 0.00 74 1017.1
20260903044938 78 309 1.0 5.0 0.00 0.00 0.00 73 1017.1
20260903044437 78 267 1.0 4.0 0.00 0.00 0.00 73 1017.1
20260903043937 78 270 1.0 4.0 0.00 0.00 0.00 72 1017.1